STARLINK-32842 (62822 NORAD) Tracking and Keplerian Element Data

This shows tracking and keplerian element data for the satellite.

Feedback or suggestion? Click here.




ElementValue
Catalog62822
NameSTARLINK-32842
Epoch Orbit286
Epoch Day34.83335648
Epoch Year2025
RAAN13.5717
Inclination53.1472
Eccentricity0.0001115
Argument of Perigee120.9703
Mean Anonmoly210.9192
Mean Motion15.86919561
Decay Rate-0.0100978
L11 62822U 25018S 25034.83335648 -.01009780 00000+0 -42957-2 0 9995
L22 62822 53.1472 13.5717 0001115 120.9703 210.9192 15.86919561 2869



Live tracking and technical data element details for STARLINK-32842 (NORAD 62822). STARLINK-32842 can be tracked NOW for your location showing map with azimuth and elevation plus other details from your city location.







IsCatalogInMostPopularTable: catalog: 62822, numindb: 195
Update: records affected: 1



GetName: 62822 STARLINK-32842

Hit Count: updated at: Mon, 17 Nov 2025 18:55:40 GMT